Home > Weather > South Bend > Past weeks

Flag for U.S.A. Weather for the Past 2 Weeks in South Bend, Indiana, U.S.A.

Now
2 °F

Clear.


Feels Like: -6 °F
Forecast: 0 / 17 °F
Wind: 3 mph from Southeast

Location: Michiana Regional Airport

Current Time: Feb 14, 2016 at 8:04:28 AM

Latest Report: Feb 14, 2016 at 6:54 AM


Visibility: 10 mi

Pressure: 30.48 "Hg

Humidity: 83%

Dew point: -2 °F

Location of South BendLocation

Historic Weather in South Bend — Graph

°F

South Bend Temperature Yesterday

Maximum temperature yesterday: 13 °F (at 11:54 AM)
Minimum temperature yesterday: 6 °F (at 4:54 AM)
Average temperature yesterday: 10 °F

High & Low Weather Summary for the Past Weeks

 TemperatureHumidityPressure
High52 °F (Jan 31, 2:54 PM)100% (Jan 31, 2:54 AM)30.58 "Hg (Jan 31, 2:54 AM)
Low1 °F (Feb 14, 5:54 AM)53% (Feb 7, 1:54 PM)29.47 "Hg (Feb 2, 11:54 PM)
Average27 °F82%30.02 "Hg
* Reported Jan 30 6:54 AM — Feb 14 6:54 AM, South Bend, Weather by CustomWeather, © 2016

Note: Actual official high and low records may vary slightly from our data, if they occured in-between our weather recording intervals... More about our weather records

Advertising

South Bend Weather History for the Previous 24 Hours

 ConditionsComfort  
Time TempWeatherWind HumidityBarometerVisibility
6:54 AM
Sun, Feb 14
2 °FClear.3 mph83%30.48 "Hg10 mi
5:54 AM1 °FClear.3 mph87%30.48 "Hg10 mi
4:54 AM2 °FPassing clouds.No wind88%30.48 "Hg10 mi
3:54 AM6 °FPassing clouds.3 mph79%30.49 "Hg10 mi
2:54 AM7 °FOvercast.No wind76%30.51 "Hg10 mi
1:54 AM7 °FOvercast.3 mph76%30.52 "Hg10 mi
12:54 AM7 °FOvercast.3 mph79%30.53 "Hg2 mi
11:54 PM
Sat, Feb 13
7 °FOvercast.No wind76%30.53 "Hg10 mi
10:54 PM7 °FOvercast.3 mph76%30.54 "Hg10 mi
9:54 PM8 °FOvercast.6 mph76%30.54 "Hg10 mi
8:54 PM8 °FOvercast.No wind76%30.54 "Hg10 mi
7:54 PM10 °FOvercast.5 mph69%30.55 "Hg10 mi
6:54 PM11 °FLight snow. Overcast.8 mph73%30.56 "Hg9 mi
5:54 PM12 °FLight snow. Overcast.9 mph73%30.56 "Hg4 mi
4:54 PM12 °FLight snow. Mostly cloudy.10 mph80%30.56 "Hg1 mi
3:54 PM12 °FLight snow. Mostly cloudy.12 mph77%30.56 "Hg1 mi
2:54 PM13 °FOvercast.16 mph70%30.55 "Hg10 mi
1:54 PM12 °FSnow. Ice fog.16 mph77%30.57 "Hg1 mi
12:54 PM12 °FLight snow. Ice fog.16 mph84%30.58 "Hg1 mi
11:54 AM13 °FLight snow. Mostly cloudy.15 mph77%30.58 "Hg1 mi
10:54 AM12 °FSnow. Mostly cloudy.12 mph80%30.57 "Hg1 mi
9:54 AM11 °FLight snow. Ice fog.13 mph84%30.55 "Hg1 mi
8:54 AM10 °FSnow. Ice fog.12 mph80%30.54 "Hg1 mi
Weather by CustomWeather, © 2016

See weather overviewHow to use our weather pages